QPF
0.01 0.01 0.02 0.02 0.01 0.01 0.01 0.01 0.02 0.01 0.00 0.01 0.01 0.01 0.00 0.00 0.01 0.01 0.01 0.01 0.01 0.02 0.02 0.03 0.02 0.02 0.02 0.02 0.03 0.02 0.01 0.01 0.01 0.00 0.00 0.00 0.00 0.00 0.00 0.00 0.00 0.00 0.00 0.00
0.01 0.01 0.01 0.01 0.01 0.01 0.02 0.02 0.01 0.01 0.01 0.01 0.01 0.00 0.00 0.00 0.01 0.01 0.01 0.02 0.02 0.02 0.01 0.02 0.02 0.02 0.02 0.02 0.02 0.02 0.01 0.01 0.00 0.00 0.00 0.00 0.00 0.00 0.00 0.00 0.00 0.00 0.00 0.00
0.01 0.01 0.01 0.01 0.01 0.01 0.01 0.02 0.01 0.00 0.00 0.00 0.01 0.01 0.01 0.01 0.01 0.01 0.01 0.01 0.01 0.01 0.01 0.01 0.01 0.01 0.01 0.01 0.01 0.01 0.01 0.01 0.01 0.01 0.00 0.00 0.00 0.00 0.00 0.00 0.00 0.00 0.00 0.00
0.01 0.00 0.00 0.01 0.01 0.01 0.02 0.01 0.00 0.00 0.02 0.02 0.02 0.04 0.04 0.03 0.02 0.01 0.00 0.00 0.00 0.01 0.01 0.01 0.01 0.01 0.01 0.01 0.02 0.03 0.03 0.02 0.01 0.01 0.00 0.00 0.01 0.00 0.00 0.00 0.00 0.00 0.00 0.00
0.01 0.00 0.00 0.01 0.01 0.00 0.01 0.01 0.00 0.00 0.02 0.03 0.03 0.05 0.05 0.03 0.03 0.02 0.01 0.00 0.00 0.00 0.00 0.01 0.02 0.02 0.02 0.02 0.02 0.03 0.03 0.03 0.02 0.01 0.01 0.01 0.00 0.00 0.00 0.00 0.00 0.00 0.00 0.00
0.01 0.00 0.00 0.00 0.00 0.00 0.00 0.01 0.01 0.01 0.04 0.07 0.05 0.05 0.05 0.01 0.02 0.02 0.01 0.00 0.00 0.00 0.00 0.01 0.01 0.02 0.01 0.01 0.02 0.02 0.02 0.03 0.04 0.03 0.01 0.01 0.00 0.00 0.00 0.00 0.00 0.00 0.01 0.01
0.01 0.00 0.00 0.00 0.00 0.00 0.01 0.03 0.06 0.06 0.07 0.06 0.02 0.03 0.04 0.01 0.00 0.01 0.00 0.00 0.00 0.00 0.00 0.00 0.00 0.00 0.00 0.00 0.00 0.01 0.01 0.01 0.02 0.03 0.03 0.02 0.02 0.01 0.00 0.00 0.00 0.00 0.01 0.02
0.02 0.01 0.00 0.00 0.00 0.01 0.01 0.04 0.08 0.08 0.08 0.07 0.02 0.03 0.02 0.01 0.00 0.00 0.00 0.00 0.00 0.00 0.00 0.00 0.00 0.00 0.00 0.00 0.00 0.00 0.00 0.00 0.00 0.01 0.01 0.02 0.02 0.02 0.01 0.00 0.00 0.01 0.01 0.01
0.02 0.01 0.00 0.00 0.00 0.00 0.01 0.02 0.03 0.05 0.05 0.06 0.05 0.02 0.01 0.00 0.00 0.00 0.00 0.00 0.00 0.00 0.01 0.01 0.01 0.01 0.00 0.00 0.00 0.00 0.01 0.01 0.01 0.01 0.01 0.01 0.01 0.02 0.02 0.01 0.01 0.00 0.00 0.00
0.01 0.01 0.00 0.00 0.00 0.00 0.00 0.01 0.03 0.06 0.07 0.08 0.08 0.06 0.03 0.01 0.00 0.00 0.00 0.00 0.00 0.01 0.01 0.01 0.02 0.01 0.01 0.01 0.01 0.02 0.02 0.01 0.01 0.01 0.01 0.01 0.01 0.02 0.02 0.02 0.01 0.01 0.00 0.00
0.00 0.01 0.01 0.00 0.00 0.00 0.00 0.01 0.02 0.04 0.04 0.06 0.08 0.07 0.02 0.02 0.02 0.00 0.00 0.00 0.00 0.00 0.01 0.01 0.01 0.01 0.01 0.01 0.01 0.01 0.02 0.01 0.01 0.01 0.01 0.01 0.01 0.02 0.03 0.02 0.01 0.00 0.00 0.00
0.00 0.00 0.00 0.00 0.00 0.00 0.00 0.00 0.01 0.04 0.03 0.03 0.05 0.04 0.01 0.00 0.00 0.00 0.00 0.00 0.00 0.01 0.01 0.01 0.01 0.01 0.01 0.01 0.01 0.01 0.01 0.00 0.00 0.00 0.00 0.00 0.01 0.01 0.02 0.03 0.02 0.01 0.00 0.00
0.00 0.00 0.01 0.02 0.01 0.00 0.00 0.00 0.00 0.01 0.02 0.02 0.03 0.02 0.00 0.00 0.01 0.01 0.00 0.00 0.00 0.00 0.01 0.01 0.01 0.01 0.01 0.01 0.01 0.01 0.00 0.00 0.00 0.00 0.00 0.00 0.01 0.02 0.02 0.02 0.02 0.02 0.01 0.00
0.00 0.00 0.01 0.02 0.01 0.00 0.00 0.00 0.00 0.00 0.01 0.01 0.01 0.01 0.00 0.00 0.00 0.01 0.01 0.00 0.00 0.00 0.01 0.01 0.01 0.01 0.01 0.01 0.01 0.01 0.01 0.00 0.00 0.00 0.00 0.00 0.01 0.02 0.02 0.02 0.02 0.01 0.00 0.00
0.01 0.00 0.00 0.00 0.01 0.00 0.00 0.00 0.00 0.00 0.00 0.00 0.00 0.01 0.00 0.00 0.01 0.00 0.00 0.01 0.01 0.00 0.00 0.00 0.00 0.00 0.01 0.01 0.01 0.01 0.01 0.01 0.00 0.00 0.00 0.00 0.00 0.01 0.01 0.02 0.01 0.00 0.00 0.00
0.01 0.01 0.00 0.00 0.00 0.00 0.00 0.00 0.00 0.00 0.01 0.00 0.00 0.01 0.01 0.01 0.01 0.00 0.00 0.00 0.01 0.00 0.00 0.00 0.00 0.00 0.00 0.00 0.00 0.00 0.00 0.00 0.00 0.00 0.00 0.00 0.00 0.00 0.00 0.01 0.00 0.00 0.00 0.01
0.01 0.01 0.01 0.01 0.00 0.00 0.00 0.00 0.00 0.00 0.00 0.00 0.00 0.00 0.00 0.00 0.00 0.00 0.00 0.00 0.00 0.00 0.00 0.00 0.00 0.00 0.00 0.00 0.00 0.00 0.00 0.00 0.00 0.00 0.00 0.01 0.01 0.00 0.00 0.00 0.00 0.00 0.01 0.01
0.01 0.01 0.01 0.01 0.01 0.01 0.00 0.00 0.00 0.00 0.00 0.00 0.00 0.00 0.00 0.00 0.00 0.00 0.00 0.00 0.00 0.00 0.00 0.00 0.00 0.00 0.00 0.00 0.00 0.00 0.01 0.01 0.00 0.00 0.01 0.01 0.01 0.01 0.00 0.00 0.00 0.00 0.01 0.01
0.00 0.00 0.01 0.01 0.02 0.01 0.00 0.00 0.00 0.00 0.00 0.00 0.00 0.00 0.00 0.00 0.00 0.00 0.00 0.00 0.00 0.00 0.00 0.00 0.00 0.00 0.00 0.00 0.01 0.01 0.01 0.01 0.00 0.00 0.01 0.01 0.00 0.00 0.00 0.00 0.00 0.01 0.01 0.01
0.00 0.01 0.01 0.01 0.02 0.01 0.00 0.00 0.00 0.00 0.00 0.00 0.00 0.00 0.00 0.00 0.00 0.00 0.00 0.00 0.00 0.00 0.00 0.00 0.00 0.00 0.00 0.00 0.01 0.00 0.01 0.01 0.00 0.00 0.00 0.00 0.00 0.00 0.00 0.00 0.00 0.00 0.00 0.00
0.01 0.01 0.01 0.01 0.02 0.01 0.00 0.00 0.00 0.00 0.00 0.00 0.00 0.00 0.00 0.00 0.00 0.00 0.00 0.00 0.00 0.00 0.00 0.00 0.00 0.00 0.00 0.00 0.00 0.00 0.00 0.01 0.01 0.01 0.01 0.01 0.00 0.00 0.00 0.00 0.00 0.01 0.01 0.01
0.00 0.01 0.01 0.01 0.02 0.01 0.00 0.00 0.00 0.00 0.00 0.00 0.00 0.00 0.00 0.00 0.00 0.00 0.00 0.00 0.00 0.00 0.00 0.00 0.00 0.00 0.00 0.00 0.00 0.00 0.00 0.01 0.01 0.01 0.00 0.00 0.00 0.00 0.00 0.00 0.00 0.01 0.01 0.01
0.01 0.01 0.01 0.00 0.01 0.01 0.00 0.00 0.00 0.00 0.00 0.00 0.00 0.00 0.00 0.00 0.00 0.00 0.00 0.00 0.00 0.00 0.00 0.00 0.00 0.00 0.00 0.01 0.00 0.00 0.01 0.01 0.01 0.00 0.00 0.00 0.00 0.00 0.00 0.00 0.00 0.01 0.01 0.01
0.00 0.00 0.01 0.01 0.00 0.00 0.00 0.00 0.00 0.00 0.00 0.00 0.00 0.00 0.00 0.00 0.00 0.00 0.00 0.00 0.00 0.00 0.00 0.00 0.00 0.00 0.00 0.01 0.01 0.01 0.01 0.01 0.01 0.00 0.01 0.01 0.00 0.00 0.00 0.00 0.00 0.00 0.00 0.00
0.00 0.00 0.01 0.01 0.00 0.00 0.00 0.00 0.00 0.00 0.00 0.00 0.00 0.00 0.00 0.00 0.00 0.00 0.00 0.00 0.00 0.00 0.00 0.00 0.00 0.00 0.00 0.01 0.01 0.01 0.01 0.01 0.01 0.01 0.00 0.00 0.00 0.00 0.00 0.00 0.00 0.00 0.00 0.00
0.00 0.00 0.01 0.01 0.00 0.00 0.00 0.00 0.00 0.00 0.00 0.00 0.00 0.00 0.00 0.00 0.00 0.00 0.00 0.00 0.00 0.00 0.00 0.00 0.00 0.00 0.00 0.00 0.01 0.01 0.01 0.01 0.01 0.01 0.01 0.01 0.00 0.00 0.00 0.00 0.01 0.01 0.01 0.01
MSLP
1011.50 1012.19 1012.75 1013.17 1013.49 1013.77 1014.07 1014.42 1014.86 1015.37 1015.91 1016.43 1016.87 1017.16 1017.28 1017.21 1016.96 1016.59 1016.13 1015.66 1015.22 1014.85 1014.57 1014.40 1014.32 1014.33 1014.40 1014.53 1014.70 1014.92 1015.17 1015.44 1015.73 1016.02 1016.29 1016.51 1016.68 1016.77 1016.79 1016.75 1016.67 1016.57 1016.48 1016.43
1011.93 1012.48 1012.88 1013.13 1013.32 1013.49 1013.72 1014.07 1014.53 1015.10 1015.71 1016.30 1016.79 1017.12 1017.26 1017.19 1016.94 1016.58 1016.14 1015.70 1015.30 1014.97 1014.73 1014.58 1014.50 1014.48 1014.51 1014.59 1014.73 1014.92 1015.17 1015.49 1015.84 1016.22 1016.58 1016.91 1017.16 1017.31 1017.37 1017.34 1017.25 1017.13 1017.02 1016.95
1012.22 1012.66 1012.92 1013.06 1013.14 1013.24 1013.44 1013.77 1014.23 1014.80 1015.41 1015.97 1016.42 1016.69 1016.77 1016.66 1016.40 1016.04 1015.66 1015.30 1015.01 1014.80 1014.67 1014.61 1014.59 1014.60 1014.63 1014.69 1014.80 1014.96 1015.21 1015.53 1015.93 1016.37 1016.81 1017.22 1017.54 1017.77 1017.87 1017.87 1017.80 1017.69 1017.57 1017.49
1012.36 1012.71 1012.90 1012.97 1013.02 1013.11 1013.31 1013.63 1014.08 1014.60 1015.12 1015.56 1015.87 1016.00 1015.94 1015.72 1015.40 1015.04 1014.72 1014.49 1014.36 1014.33 1014.39 1014.49 1014.60 1014.69 1014.77 1014.84 1014.92 1015.06 1015.28 1015.60 1016.00 1016.47 1016.96 1017.42 1017.81 1018.10 1018.26 1018.31 1018.27 1018.18 1018.09 1018.01
1012.32 1012.63 1012.81 1012.90 1012.99 1013.13 1013.36 1013.71 1014.12 1014.56 1014.94 1015.20 1015.28 1015.18 1014.91 1014.53 1014.11 1013.74 1013.49 1013.39 1013.45 1013.65 1013.93 1014.25 1014.54 1014.76 1014.92 1015.02 1015.10 1015.21 1015.40 1015.68 1016.07 1016.53 1017.03 1017.53 1017.96 1018.29 1018.51 1018.61 1018.62 1018.58 1018.52 1018.47
1012.10 1012.41 1012.64 1012.82 1013.01 1013.26 1013.58 1013.97 1014.37 1014.71 1014.93 1014.96 1014.78 1014.41 1013.89 1013.31 1012.77 1012.37 1012.16 1012.20 1012.45 1012.88 1013.41 1013.95 1014.44 1014.81 1015.07 1015.22 1015.32 1015.41 1015.55 1015.79 1016.13 1016.56 1017.05 1017.55 1018.00 1018.37 1018.63 1018.79 1018.85 1018.86 1018.85 1018.84
1011.70 1012.04 1012.35 1012.66 1013.01 1013.42 1013.87 1014.33 1014.73 1015.00 1015.06 1014.87 1014.44 1013.80 1013.03 1012.25 1011.59 1011.13 1010.97 1011.11 1011.53 1012.17 1012.92 1013.67 1014.34 1014.86 1015.21 1015.42 1015.53 1015.61 1015.72 1015.90 1016.19 1016.58 1017.04 1017.52 1017.98 1018.36 1018.66 1018.86 1018.98 1019.05 1019.08 1019.12
1011.12 1011.51 1011.92 1012.38 1012.90 1013.49 1014.09 1014.66 1015.09 1015.31 1015.25 1014.89 1014.25 1013.39 1012.42 1011.48 1010.71 1010.22 1010.08 1010.30 1010.85 1011.63 1012.54 1013.45 1014.25 1014.89 1015.33 1015.59 1015.72 1015.79 1015.87 1016.02 1016.26 1016.61 1017.03 1017.49 1017.93 1018.33 1018.65 1018.89 1019.06 1019.18 1019.27 1019.35
1010.42 1010.83 1011.32 1011.92 1012.61 1013.37 1014.12 1014.79 1015.28 1015.49 1015.38 1014.92 1014.15 1013.16 1012.07 1011.04 1010.21 1009.70 1009.58 1009.85 1010.47 1011.33 1012.33 1013.32 1014.20 1014.90 1015.39 1015.68 1015.83 1015.91 1015.99 1016.12 1016.34 1016.66 1017.06 1017.50 1017.94 1018.34 1018.68 1018.94 1019.15 1019.31 1019.45 1019.57
1009.65 1010.05 1010.60 1011.29 1012.11 1012.99 1013.87 1014.64 1015.18 1015.43 1015.31 1014.83 1014.03 1013.01 1011.90 1010.86 1010.04 1009.55 1009.45 1009.74 1010.38 1011.26 1012.27 1013.27 1014.16 1014.86 1015.37 1015.68 1015.86 1015.96 1016.06 1016.21 1016.45 1016.77 1017.16 1017.59 1018.03 1018.43 1018.78 1019.07 1019.31 1019.51 1019.69 1019.86
1008.90 1009.26 1009.81 1010.54 1011.41 1012.36 1013.31 1014.13 1014.73 1015.01 1014.94 1014.50 1013.76 1012.80 1011.77 1010.81 1010.06 1009.63 1009.57 1009.87 1010.49 1011.33 1012.28 1013.23 1014.07 1014.75 1015.24 1015.57 1015.79 1015.94 1016.09 1016.30 1016.58 1016.93 1017.35 1017.80 1018.24 1018.65 1019.01 1019.32 1019.59 1019.82 1020.04 1020.25
1008.28 1008.56 1009.06 1009.76 1010.62 1011.56 1012.51 1013.33 1013.94 1014.26 1014.23 1013.87 1013.24 1012.41 1011.52 1010.71 1010.09 1009.75 1009.74 1010.05 1010.64 1011.41 1012.27 1013.12 1013.89 1014.51 1014.99 1015.34 1015.61 1015.84 1016.08 1016.38 1016.74 1017.16 1017.62 1018.10 1018.56 1018.99 1019.36 1019.69 1019.98 1020.25 1020.51 1020.76
1007.85 1008.04 1008.45 1009.07 1009.85 1010.72 1011.59 1012.35 1012.92 1013.22 1013.23 1012.95 1012.43 1011.76 1011.05 1010.41 1009.95 1009.74 1009.80 1010.12 1010.67 1011.37 1012.13 1012.89 1013.57 1014.15 1014.62 1015.01 1015.35 1015.68 1016.05 1016.46 1016.92 1017.43 1017.96 1018.48 1018.97 1019.42 1019.81 1020.16 1020.48 1020.78 1021.07 1021.37
1007.67 1007.76 1008.07 1008.57 1009.22 1009.95 1010.68 1011.32 1011.78 1012.03 1012.02 1011.79 1011.37 1010.85 1010.31 1009.85 1009.55 1009.46 1009.60 1009.95 1010.48 1011.11 1011.80 1012.47 1013.10 1013.66 1014.15 1014.60 1015.04 1015.50 1016.00 1016.54 1017.13 1017.73 1018.33 1018.90 1019.42 1019.89 1020.30 1020.67 1021.01 1021.35 1021.69 1022.04
1007.72 1007.71 1007.91 1008.28 1008.78 1009.34 1009.89 1010.36 1010.67 1010.80 1010.74 1010.50 1010.14 1009.72 1009.32 1009.01 1008.86 1008.88 1009.10 1009.49 1010.01 1010.62 1011.26 1011.90 1012.50 1013.08 1013.63 1014.17 1014.73 1015.33 1015.97 1016.64 1017.34 1018.04 1018.70 1019.31 1019.86 1020.34 1020.77 1021.16 1021.54 1021.91 1022.29 1022.69
1007.91 1007.82 1007.92 1008.17 1008.52 1008.90 1009.26 1009.53 1009.67 1009.66 1009.50 1009.22 1008.86 1008.50 1008.19 1007.99 1007.94 1008.06 1008.35 1008.78 1009.32 1009.93 1010.57 1011.21 1011.84 1012.48 1013.11 1013.76 1014.46 1015.19 1015.97 1016.77 1017.56 1018.33 1019.04 1019.69 1020.25 1020.74 1021.18 1021.59 1021.99 1022.40 1022.83 1023.27
1008.12 1007.98 1007.99 1008.13 1008.34 1008.56 1008.74 1008.84 1008.80 1008.64 1008.37 1008.02 1007.64 1007.30 1007.03 1006.90 1006.93 1007.12 1007.47 1007.95 1008.52 1009.16 1009.83 1010.52 1011.22 1011.93 1012.67 1013.45 1014.27 1015.14 1016.03 1016.92 1017.79 1018.60 1019.35 1020.00 1020.56 1021.06 1021.50 1021.92 1022.35 1022.79 1023.26 1023.74
1008.22 1008.02 1007.96 1008.01 1008.11 1008.20 1008.25 1008.20 1008.04 1007.76 1007.40 1006.99 1006.58 1006.24 1006.00 1005.91 1005.99 1006.23 1006.63 1007.15 1007.77 1008.45 1009.18 1009.93 1010.72 1011.53 1012.38 1013.27 1014.21 1015.17 1016.15 1017.11 1018.01 1018.85 1019.59 1020.24 1020.80 1021.28 1021.73 1022.16 1022.60 1023.07 1023.57 1024.08
1008.12 1007.84 1007.70 1007.67 1007.68 1007.69 1007.64 1007.51 1007.28 1006.94 1006.54 1006.12 1005.71 1005.39 1005.18 1005.13 1005.25 1005.54 1005.98 1006.55 1007.21 1007.94 1008.73 1009.56 1010.42 1011.32 1012.27 1013.25 1014.27 1015.30 1016.32 1017.31 1018.23 1019.06 1019.79 1020.42 1020.96 1021.44 1021.88 1022.32 1022.78 1023.27 1023.78 1024.31
1007.76 1007.39 1007.15 1007.03 1006.97 1006.92 1006.83 1006.68 1006.44 1006.12 1005.75 1005.37 1005.03 1004.76 1004.62 1004.63 1004.81 1005.14 1005.63 1006.23 1006.94 1007.72 1008.55 1009.44 1010.36 1011.33 1012.34 1013.38 1014.44 1015.50 1016.54 1017.52 1018.43 1019.24 1019.94 1020.55 1021.07 1021.54 1021.99 1022.44 1022.91 1023.41 1023.93 1024.47
1007.20 1006.68 1006.32 1006.09 1005.96 1005.86 1005.77 1005.65 1005.47 1005.24 1004.98 1004.72 1004.49 1004.35 1004.31 1004.42 1004.67 1005.07 1005.60 1006.24 1006.98 1007.79 1008.66 1009.57 1010.53 1011.52 1012.55 1013.61 1014.67 1015.73 1016.75 1017.70 1018.58 1019.36 1020.04 1020.63 1021.15 1021.62 1022.08 1022.54 1023.02 1023.53 1024.06 1024.60
1006.52 1005.82 1005.30 1004.94 1004.72 1004.59 1004.51 1004.44 1004.37 1004.29 1004.19 1004.11 1004.06 1004.08 1004.20 1004.43 1004.79 1005.27 1005.85 1006.53 1007.29 1008.12 1008.99 1009.91 1010.86 1011.85 1012.86 1013.89 1014.93 1015.94 1016.92 1017.84 1018.68 1019.43 1020.10 1020.68 1021.20 1021.69 1022.16 1022.64 1023.14 1023.66 1024.19 1024.72
1005.82 1004.92 1004.22 1003.72 1003.39 1003.22 1003.15 1003.16 1003.22 1003.30 1003.40 1003.53 1003.70 1003.92 1004.22 1004.61 1005.08 1005.65 1006.30 1007.02 1007.79 1008.61 1009.47 1010.37 1011.28 1012.23 1013.20 1014.17 1015.15 1016.11 1017.03 1017.90 1018.71 1019.44 1020.10 1020.69 1021.23 1021.74 1022.24 1022.74 1023.26 1023.80 1024.33 1024.86
1005.21 1004.12 1003.23 1002.58 1002.14 1001.91 1001.85 1001.92 1002.10 1002.35 1002.65 1002.99 1003.38 1003.82 1004.31 1004.85 1005.46 1006.12 1006.82 1007.58 1008.36 1009.17 1010.00 1010.85 1011.72 1012.60 1013.49 1014.40 1015.30 1016.20 1017.06 1017.89 1018.67 1019.38 1020.05 1020.65 1021.23 1021.77 1022.30 1022.84 1023.38 1023.92 1024.46 1024.98
1004.72 1003.47 1002.43 1001.63 1001.10 1000.81 1000.74 1000.87 1001.14 1001.53 1002.00 1002.54 1003.12 1003.74 1004.40 1005.09 1005.81 1006.56 1007.32 1008.10 1008.89 1009.68 1010.48 1011.28 1012.08 1012.90 1013.72 1014.55 1015.38 1016.21 1017.02 1017.81 1018.56 1019.28 1019.95 1020.58 1021.19 1021.77 1022.34 1022.90 1023.47 1024.02 1024.56 1025.08
1004.32 1002.96 1001.83 1000.94 1000.34 1000.01 999.94 1000.09 1000.44 1000.92 1001.52 1002.19 1002.92 1003.68 1004.47 1005.27 1006.08 1006.89 1007.70 1008.51 1009.30 1010.08 1010.84 1011.60 1012.35 1013.11 1013.86 1014.63 1015.40 1016.16 1016.93 1017.68 1018.42 1019.13 1019.82 1020.48 1021.12 1021.73 1022.33 1022.92 1023.50 1024.07 1024.61 1025.12
Thickness
5757 5745 5736 5741 5744 5741 5738 5733 5729 5734 5744 5737 5731 5730 5734 5738 5737 5734 5734 5733 5733 5733 5736 5736 5734 5734 5732 5731 5729 5727 5725 5724 5723 5722 5720 5719 5718 5720 5721 5721 5722 5722 5722 5721
5745 5738 5747 5753 5750 5744 5737 5730 5729 5734 5742 5735 5730 5731 5739 5739 5736 5736 5735 5734 5734 5733 5733 5733 5732 5732 5730 5729 5728 5726 5724 5723 5721 5720 5720 5719 5718 5719 5719 5719 5719 5720 5720 5719
5738 5744 5755 5749 5742 5738 5735 5731 5730 5729 5736 5738 5730 5725 5732 5738 5741 5739 5738 5738 5738 5735 5733 5732 5731 5730 5729 5727 5726 5726 5724 5723 5721 5720 5719 5718 5717 5716 5715 5715 5716 5717 5717 5717
5743 5751 5749 5743 5738 5737 5727 5740 5737 5732 5724 5719 5726 5707 5725 5734 5733 5735 5736 5737 5737 5737 5737 5734 5732 5730 5728 5727 5727 5726 5724 5723 5721 5719 5716 5714 5711 5709 5711 5713 5714 5715 5715 5715
5741 5747 5742 5737 5740 5742 5736 5743 5738 5733 5726 5721 5728 5714 5720 5735 5729 5733 5737 5738 5739 5739 5738 5735 5733 5731 5730 5729 5727 5725 5724 5722 5720 5718 5715 5713 5711 5711 5713 5713 5713 5713 5713 5713
5746 5755 5751 5746 5750 5749 5746 5739 5735 5734 5722 5705 5725 5718 5714 5731 5735 5738 5742 5743 5742 5741 5740 5737 5735 5732 5729 5728 5726 5724 5721 5718 5717 5716 5714 5712 5711 5710 5710 5710 5710 5710 5710 5710
5736 5745 5753 5754 5741 5743 5739 5721 5703 5701 5698 5706 5736 5726 5723 5743 5751 5748 5746 5746 5746 5744 5741 5736 5733 5729 5727 5725 5723 5721 5718 5715 5715 5714 5713 5712 5711 5711 5709 5708 5708 5708 5707 5707
5725 5725 5744 5750 5742 5733 5732 5723 5700 5690 5695 5709 5728 5720 5732 5752 5757 5757 5754 5751 5748 5744 5742 5738 5734 5730 5727 5724 5722 5720 5717 5714 5714 5713 5713 5712 5712 5710 5709 5709 5708 5708 5707 5706
5729 5728 5750 5753 5753 5745 5728 5725 5731 5715 5714 5707 5714 5725 5738 5752 5751 5752 5751 5749 5746 5744 5742 5738 5735 5731 5728 5725 5722 5720 5717 5715 5713 5713 5712 5711 5710 5709 5709 5709 5708 5707 5706 5706
5744 5728 5740 5748 5749 5747 5743 5737 5727 5712 5697 5693 5705 5712 5715 5731 5738 5745 5747 5746 5745 5745 5742 5738 5735 5732 5729 5726 5723 5721 5719 5716 5714 5712 5711 5710 5709 5708 5707 5706 5705 5705 5704 5704
5749 5731 5730 5737 5731 5731 5735 5732 5728 5721 5717 5700 5692 5705 5737 5736 5741 5743 5746 5747 5746 5744 5741 5738 5734 5732 5729 5726 5723 5720 5718 5715 5713 5711 5710 5709 5707 5707 5706 5704 5703 5703 5702 5701
5748 5735 5724 5733 5748 5751 5742 5736 5729 5709 5710 5717 5705 5709 5751 5748 5750 5748 5747 5748 5747 5745 5742 5738 5735 5731 5728 5725 5723 5720 5718 5715 5713 5711 5709 5707 5706 5705 5703 5702 5701 5700 5699 5699
5741 5728 5713 5714 5725 5736 5734 5737 5736 5731 5721 5714 5703 5711 5751 5752 5749 5748 5746 5746 5745 5742 5740 5737 5733 5729 5726 5724 5722 5720 5718 5716 5714 5711 5709 5706 5704 5703 5701 5700 5699 5698 5697 5696
5739 5726 5719 5707 5717 5727 5725 5730 5734 5728 5713 5711 5715 5721 5737 5742 5743 5744 5745 5745 5744 5741 5738 5734 5730 5728 5726 5724 5723 5721 5718 5717 5714 5711 5708 5705 5703 5701 5700 5699 5697 5696 5695 5694
5733 5720 5726 5730 5734 5732 5729 5728 5730 5727 5727 5718 5722 5726 5734 5742 5743 5745 5745 5743 5741 5738 5736 5733 5729 5728 5726 5724 5723 5722 5719 5717 5715 5711 5707 5704 5703 5701 5699 5697 5695 5694 5693 5692
5728 5717 5720 5720 5729 5729 5725 5730 5730 5729 5731 5728 5728 5729 5746 5749 5747 5745 5744 5741 5737 5736 5735 5734 5731 5729 5727 5726 5723 5722 5719 5718 5715 5711 5707 5705 5702 5699 5697 5695 5693 5691 5690 5688
5718 5714 5707 5705 5720 5720 5712 5729 5730 5731 5735 5733 5724 5732 5745 5743 5741 5741 5742 5741 5738 5737 5736 5734 5733 5731 5729 5728 5726 5722 5720 5719 5715 5710 5707 5704 5701 5698 5695 5694 5691 5688 5686 5685
5709 5707 5703 5700 5703 5687 5720 5746 5742 5734 5737 5741 5740 5742 5744 5743 5746 5748 5748 5743 5740 5739 5737 5736 5735 5733 5732 5731 5729 5725 5722 5718 5714 5710 5707 5704 5700 5697 5694 5691 5689 5686 5685 5682
5714 5703 5695 5692 5688 5699 5720 5737 5738 5729 5728 5742 5740 5741 5744 5747 5744 5742 5747 5747 5743 5741 5740 5738 5738 5736 5734 5732 5730 5725 5721 5717 5713 5709 5706 5703 5701 5696 5692 5689 5687 5685 5682 5679
5709 5707 5693 5688 5680 5682 5711 5736 5745 5732 5716 5739 5741 5738 5739 5739 5722 5725 5742 5744 5743 5742 5741 5739 5737 5735 5732 5731 5729 5723 5719 5715 5711 5709 5707 5705 5701 5696 5691 5689 5686 5684 5681 5678
5690 5690 5684 5681 5680 5695 5723 5736 5734 5705 5711 5736 5739 5737 5736 5731 5729 5736 5742 5741 5740 5739 5738 5737 5734 5731 5729 5729 5726 5720 5717 5714 5713 5711 5707 5704 5700 5696 5691 5688 5685 5681 5678 5675
5689 5683 5682 5682 5675 5685 5722 5725 5715 5717 5732 5735 5735 5735 5733 5733 5735 5736 5736 5735 5734 5733 5733 5732 5728 5726 5726 5726 5722 5718 5715 5716 5713 5709 5705 5701 5698 5694 5690 5685 5682 5679 5675 5671
5690 5694 5693 5692 5691 5710 5719 5720 5724 5728 5725 5727 5728 5730 5730 5728 5728 5729 5729 5729 5728 5728 5727 5727 5724 5721 5721 5722 5719 5714 5714 5714 5710 5705 5701 5698 5695 5692 5688 5684 5679 5676 5673 5669
5691 5701 5696 5694 5701 5708 5713 5717 5719 5722 5720 5722 5723 5724 5725 5722 5723 5723 5723 5723 5723 5723 5722 5721 5719 5716 5715 5716 5716 5714 5712 5711 5706 5701 5698 5695 5691 5688 5685 5681 5678 5673 5670 5666
5679 5685 5684 5685 5695 5700 5704 5707 5710 5712 5714 5715 5716 5717 5718 5717 5716 5717 5717 5718 5717 5717 5717 5716 5713 5711 5710 5711 5711 5711 5709 5707 5702 5698 5694 5691 5688 5684 5680 5676 5672 5670 5668 5666
5674 5674 5670 5673 5688 5689 5692 5701 5704 5703 5704 5706 5707 5707 5710 5711 5710 5711 5711 5713 5712 5712 5711 5710 5708 5706 5706 5706 5706 5706 5706 5703 5699 5694 5691 5687 5684 5680 5676 5670 5665 5663 5663 5662